EST,Max TemperatureF,Mean TemperatureF,Min TemperatureF,Max Dew PointF,MeanDew PointF,Min DewpointF,Max Humidity, Mean Humidity, Min Humidity, Max Sea Level PressureIn, Mean Sea Level PressureIn, Min Sea Level PressureIn, Max VisibilityMiles, Mean VisibilityMiles, Min VisibilityMiles, Max Wind SpeedMPH, Mean Wind SpeedMPH, Max Gust SpeedMPH,PrecipitationIn, CloudCover, Events, WindDirDegrees
2013-1-1,57,51,45,57,51,40,100,89,76,30.14,30.03,29.94,10,8,2,9,4,,0.00,8,Rain,201
2013-1-2,53,48,42,54,44,38,100,84,67,30.17,30.08,29.96,10,10,5,10,5,17,0.00,4,Rain,341
2013-1-3,47,38,31,40,36,29,97,82,59,30.33,30.22,30.15,10,8,4,8,3,,0.00,4,Rain,339
2013-1-4,54,40,26,29,25,20,93,58,27,30.41,30.35,30.30,10,10,10,9,3,,0.00,0,,354
2013-1-5,52,40,28,39,29,23,93,67,33,30.40,30.33,30.27,10,10,10,6,1,,0.00,2,Rain,353
2013-1-6,53,44,34,42,39,33,94,79,62,30.28,30.23,30.17,10,10,10,10,2,,0.00,5,Rain,316
2013-1-7,57,42,26,34,31,25,100,74,33,30.37,30.31,30.27,10,10,0,10,2,16,0.00,0,Fog,97
2013-1-8,57,44,32,46,39,30,91,71,57,30.37,30.30,30.27,10,10,10,7,2,,0.00,7,,83
2013-1-9,64,58,52,60,52,45,93,81,72,30.40,30.35,30.31,10,10,7,6,3,,0.00,8,Rain,92
2013-1-10,65,62,59,64,62,58,100,93,86,30.37,30.31,30.21,10,9,7,14,3,20,0.00,8,Rain,121
2013-1-11,73,68,61,65,63,61,96,87,75,30.21,30.15,30.12,10,10,10,18,9,25,0.00,7,,178
2013-1-12,74,66,59,64,61,57,100,85,59,30.17,30.11,30.05,10,9,0,14,5,18,0.00,4,Fog,192
2013-1-13,74,68,63,64,62,60,94,83,66,30.11,30.05,30.01,10,10,7,15,7,21,0.00,7,Rain,181
2013-1-14,75,62,51,67,64,50,100,91,71,30.14,30.08,30.04,10,9,5,12,7,17,0.00,8,Rain,204
2013-1-15,73,62,51,67,60,50,100,95,77,30.12,30.03,29.96,10,7,0,12,3,16,0.00,8,Fog-Rain,201
2013-1-16,67,62,55,66,61,55,100,96,90,30.02,29.97,29.92,10,8,2,9,5,,0.00,8,Rain,256
2013-1-17,56,47,37,57,45,33,100,93,74,30.24,29.94,29.84,10,7,2,18,5,25,0.00,7,Rain,269
2013-1-18,55,42,30,35,30,25,98,68,31,30.51,30.42,30.26,10,10,10,7,3,,0.00,0,,16
2013-1-19,59,43,27,37,31,26,100,71,33,30.45,30.34,30.24,10,10,10,7,1,,0.00,0,,259
2013-1-20,64,46,29,40,35,28,98,74,33,30.25,30.18,30.11,10,10,10,9,1,,0.00,0,,322
2013-1-21,61,45,29,39,33,25,100,68,37,30.20,30.14,30.09,10,10,7,14,2,22,0.00,0,,332
2013-1-22,50,40,29,26,20,15,81,49,32,30.35,30.28,30.19,10,10,10,14,4,18,0.00,0,,339
2013-1-23,58,42,27,38,31,22,92,65,41,30.41,30.31,30.23,10,10,10,13,2,17,0.00,5,,252
2013-1-24,63,53,43,46,37,20,84,58,34,30.34,30.25,30.17,10,10,10,14,6,20,0.00,3,,328
2013-1-25,59,50,40,53,35,19,91,57,38,30.33,30.23,30.11,10,10,10,10,5,16,0.00,7,Rain,148
2013-1-26,56,46,36,52,43,36,100,85,58,30.29,30.23,30.13,10,9,3,7,2,,0.00,4,,3
2013-1-27,63,50,37,42,38,33,93,66,40,30.42,30.35,30.28,10,10,7,8,2,,0.00,5,,92
2013-1-28,67,56,46,54,45,34,97,73,59,30.39,30.32,30.25,10,10,5,8,1,,0.00,5,,161
2013-1-29,76,60,45,65,56,45,100,86,62,30.25,30.11,29.97,10,8,1,16,3,22,0.00,6,Rain,174
2013-1-30,73,59,44,67,59,32,95,88,61,29.96,29.76,29.57,10,9,3,32,14,43,0.00,8,Rain-Thunderstorm,222
2013-1-31,51,41,32,32,28,22,92,64,33,30.22,30.11,29.91,10,10,10,23,12,33,0.00,1,,300